Lid_Strength_Index
2 2 2 2 2 2 2 2 2 2 2 2 2 2 1 1 1 2 2 2 2 2 2 3 3 3 5 7 7 2 -2 -1 6 7 8 7 7 10 12 10 8 9 8 7 6 7 7
2 3 2 2 2 2 2 2 2 2 2 2 2 1 1 1 2 2 2 2 2 2 2 3 2 3 5 9 5 3 4 6 7 8 9 8 6 6 9 10 9 7 8 7 7 8 8
2 2 2 2 2 2 2 2 2 2 2 2 1 1 1 1 2 2 2 2 3 2 2 3 2 3 6 7 4 4 5 5 6 7 8 7 5 7 8 9 7 7 9 8 7 8 7
2 2 2 2 2 2 2 2 2 1 1 1 1 1 2 2 1 2 2 2 3 2 2 2 2 4 6 3 4 5 6 6 5 6 7 6 6 7 7 7 7 8 8 11 9 8 7
2 2 2 2 1 1 2 2 2 1 1 1 1 2 2 2 2 2 2 3 2 2 2 0 3 5 6 3 5 4 5 6 6 6 7 5 6 7 7 9 11 10 13 12 10 7 8
1 2 1 1 1 1 2 2 2 1 1 1 1 2 2 2 2 2 3 3 1 1 2 1 1 5 4 5 5 4 4 5 8 8 9 9 9 10 10 11 14 12 12 11 11 8 8
1 1 1 1 1 1 1 1 1 1 1 1 1 2 2 2 2 2 3 4 6 5 5 8 7 5 4 3 3 4 4 6 8 10 12 10 12 13 10 9 9 9 10 11 9 8 9
1 1 1 1 1 1 1 1 1 1 1 1 1 1 2 2 2 2 3 5 6 7 9 6 5 5 4 4 4 4 5 9 10 13 11 12 13 8 7 7 8 9 11 11 9 8 9
0 0 0 1 0 1 1 1 1 1 1 1 2 2 2 2 2 2 3 3 4 5 9 6 4 5 5 5 6 5 7 9 11 12 12 13 9 6 7 8 9 10 11 10 10 8 8
-0 -0 -0 0 0 1 1 1 1 1 1 1 2 2 2 3 3 3 3 2 4 5 10 7 6 4 4 5 7 5 6 8 10 11 11 11 6 7 8 9 9 12 8 8 9 10 13
0 -0 -0 -0 -0 0 1 1 1 1 1 1 2 2 2 3 3 4 2 1 3 5 17 6 6 4 5 6 6 6 5 7 10 9 9 10 8 8 9 8 7 10 7 9 8 10 11
0 -0 -0 -0 -0 -0 1 1 1 1 1 2 2 2 2 2 3 2 1 1 5 10 16 8 6 7 7 6 7 6 6 6 7 8 8 8 6 7 7 7 7 7 8 9 10 12 14
1 0 0 -0 -0 0 1 1 1 1 2 2 2 3 3 2 4 1 1 4 11 14 7 8 8 7 8 8 7 7 7 9 11 13 12 9 9 7 6 8 7 9 12 15 15 16 15
1 1 1 0 -0 0 1 1 2 2 2 2 3 4 3 2 1 1 3 9 14 9 9 6 6 7 8 8 8 8 8 10 8 9 11 12 12 8 6 8 9 10 11 13 16 16 14
0 1 1 1 0 0 1 2 2 3 2 3 4 3 2 2 1 1 6 13 11 9 7 8 7 10 9 7 8 8 9 9 9 8 11 12 11 6 6 6 7 10 12 9 12 13 14
0 1 1 1 1 1 1 2 2 2 2 3 5 4 3 1 1 2 8 11 9 7 7 8 10 9 10 9 9 9 8 7 8 8 7 9 13 8 6 6 7 9 8 12 12 16 17
1 0 0 1 1 1 2 2 2 2 3 4 5 6 2 0 2 5 11 10 8 6 6 7 8 9 9 9 9 9 9 7 7 8 7 8 11 10 8 9 10 10 11 10 11 12 15
1 1 0 1 1 1 2 2 2 2 4 4 4 9 1 1 7 7 9 7 7 6 5 5 6 7 8 8 9 10 10 8 6 7 9 8 11 13 11 7 6 8 10 10 13 13 13
1 1 0 -0 0 1 1 2 2 2 3 3 6 6 1 2 10 9 7 7 6 6 6 6 6 6 7 8 11 8 8 6 6 6 9 8 11 14 13 10 8 9 8 9 10 11 14
1 0 1 0 -0 -0 2 2 2 2 1 2 5 9 5 5 5 8 8 8 8 5 6 5 6 6 7 9 8 10 9 7 6 7 7 6 11 13 15 12 10 11 10 9 11 14 13
1 1 1 1 1 0 1 2 2 2 1 2 5 8 5 9 8 7 7 7 8 8 6 6 7 7 8 11 10 10 9 8 7 7 8 9 12 11 10 9 8 9 9 9 10 10 12
1 1 1 2 2 0 0 1 1 2 1 3 7 7 6 7 7 7 8 8 8 7 7 7 8 7 7 10 9 11 9 9 11 9 9 9 13 11 11 9 9 10 9 9 9 9 10
2 2 2 2 2 1 0 2 1 2 1 3 3 3 5 7 7 8 8 7 7 6 6 6 7 8 8 8 7 7 6 7 9 10 11 11 13 13 14 10 10 12 10 9 9 9 10
2 2 2 3 2 1 0 2 2 2 1 1 2 3 7 9 7 7 6 6 7 6 7 6 6 7 6 4 5 6 7 6 7 8 8 11 12 13 15 12 17 11 8 8 9 9 9
2 2 3 3 3 1 1 2 2 2 2 2 2 3 6 10 7 7 7 6 6 6 7 5 5 5 4 6 9 11 11 9 9 8 8 9 11 14 16 15 13 11 10 10 11 11 8
2 2 3 3 3 1 2 1 3 3 2 2 2 1 4 8 8 6 7 6 9 8 7 7 5 4 6 8 10 14 15 12 12 11 8 8 9 13 14 17 18 13 8 7 7 14 7
3 3 3 3 3 2 2 2 3 3 2 2 2 0 3 7 5 5 7 7 6 7 9 8 7 7 6 10 12 13 13 9 13 14 13 13 12 14 15 16 14 9 8 7 15 13 7
3 3 3 3 2 2 2 2 3 2 1 2 2 -0 3 6 5 4 4 6 6 6 9 7 9 8 9 12 12 11 12 12 12 11 12 14 14 15 14 16 18 7 8 11 9 7 6
3 3 3 3 1 1 1 2 2 1 1 2 3 -0 -0 4 5 2 2 2 3 3 6 6 7 8 8 10 10 11 13 12 13 15 9 13 11 13 13 13 8 7 8 6 6 6 6